Home   Weather   Florø   Past weeks

Flag for Norway Past Weather in Florø, Norway — Yesterday and Last 2 Weeks

39 °F

Passing clouds.

Feels Like: 37 °F
Forecast: 42 / 51 °F
Wind: 3 mph from North

Location: Floro

Current Time: Oct 24, 2016 at 12:16:56 AM

Latest Report: Oct 23, 2016 at 11:20 PM

Visibility: N/A

Pressure: 30.27 "Hg

Humidity: 70%

Dew Point: 30 °F

Location of FlorøLocation

Past Weather in Florø — Graph


Florø Temperature Yesterday

Maximum temperature yesterday: 50 °F (at 3:20 PM)
Minimum temperature yesterday: 39 °F (at 1:20 AM)
Average temperature yesterday: 45 °F

High & Low Weather Summary for the Past Weeks

High63 °F (Oct 15, 3:20 PM)100% (Oct 9, 7:50 AM)30.57 "Hg (Oct 9, 7:50 AM)
Low37 °F (Oct 14, 3:50 AM)20% (Oct 15, 3:20 PM)29.92 "Hg (Oct 18, 3:20 AM)
Average48 °F70%30.30 "Hg
* Reported Oct 8 10:20 PM — Oct 23 10:50 PM, Florø, Weather by CustomWeather, © 2016

Note: Actual official high and low records may vary slightly from our data, if they occured in-between our weather recording intervals... More about our weather records


Florø Weather History for the Previous 24 Hours

Scroll right to see more
Time TempWeatherWind HumidityBarometerVisibility
10:50 PM
Sun, Oct 23
45 °FClear.8 mph71%30.24 "Hg10 mi
10:20 PM43 °FClear.6 mph61%30.24 "Hg10 mi
9:50 PM45 °FClear.7 mph57%30.24 "Hg10 mi
9:20 PM43 °FClear.6 mph61%30.24 "Hg10 mi
8:50 PM45 °FPassing clouds.6 mph61%30.24 "HgN/A
8:20 PM45 °FPassing clouds.5 mph61%30.24 "HgN/A
7:50 PM46 °FClear.7 mph53%30.24 "Hg10 mi
7:20 PM46 °FClear.8 mph53%30.24 "Hg10 mi
6:50 PM46 °FClear.9 mph53%30.24 "Hg10 mi
6:20 PM48 °FClear.10 mph50%30.24 "Hg10 mi
5:50 PM48 °FSunny.9 mph46%30.24 "Hg10 mi
5:20 PM48 °FSunny.12 mph46%30.24 "Hg10 mi
4:50 PM48 °FSunny.9 mph46%30.24 "Hg10 mi
4:20 PM50 °FPassing clouds.10 mph43%30.24 "HgN/A
3:50 PM50 °FPassing clouds.8 mph43%30.24 "HgN/A
3:20 PM50 °FScattered clouds.10 mph43%30.24 "HgN/A
2:50 PM48 °FScattered clouds.10 mph43%30.24 "HgN/A
2:20 PM48 °FSunny.14 mph46%30.24 "Hg10 mi
1:50 PM48 °FSunny.15 mph46%30.24 "Hg10 mi
1:20 PM48 °FSunny.13 mph43%30.27 "Hg10 mi
12:50 PM48 °FSunny.13 mph46%30.27 "Hg10 mi
12:20 PM46 °FSunny.14 mph50%30.27 "Hg10 mi
11:50 AM46 °FPartly sunny.12 mph53%30.27 "HgN/A
11:20 AM46 °FPartly sunny.12 mph53%30.27 "HgN/A
10:50 AM45 °FQuite cool.12 mph53%30.27 "HgN/A
10:20 AM45 °FQuite cool.9 mph53%30.27 "HgN/A
9:50 AM45 °FQuite cool.10 mph57%30.27 "HgN/A
9:20 AM45 °FQuite cool.10 mph53%30.27 "HgN/A
8:50 AM45 °FQuite cool.14 mph53%30.27 "HgN/A
8:20 AM45 °FQuite cool.12 mph53%30.27 "HgN/A
7:50 AM45 °FQuite cool.13 mph53%30.27 "HgN/A
7:20 AM45 °FQuite cool.13 mph57%30.27 "HgN/A
6:50 AM45 °FPassing clouds.12 mph57%30.27 "HgN/A
6:20 AM45 °FPassing clouds.13 mph61%30.27 "HgN/A
5:50 AM39 °FPassing clouds.7 mph75%30.27 "HgN/A
5:20 AM39 °FPassing clouds.5 mph70%30.27 "HgN/A
4:50 AM41 °FPassing clouds.6 mph70%30.27 "HgN/A
4:20 AM41 °FPassing clouds.8 mph70%30.27 "HgN/A
3:50 AM39 °FChilly.8 mph70%30.27 "HgN/A
3:20 AM41 °FQuite cool.6 mph66%30.27 "HgN/A
2:50 AM41 °FPassing clouds.7 mph70%30.30 "HgN/A
2:20 AM43 °FMostly cloudy.7 mph66%30.30 "HgN/A
1:50 AM41 °FPassing clouds.8 mph66%30.30 "HgN/A
1:20 AM39 °FChilly.6 mph70%30.30 "HgN/A
12:50 AM41 °FQuite cool.8 mph70%30.30 "HgN/A
12:20 AM41 °FQuite cool.7 mph70%30.30 "HgN/A
Weather by CustomWeather, © 2016

See weather overviewHow to use our weather pages